Location: Praha
(50.0830°N, 14.4670°E)
Time: 10:05:14
(UTC+01:00)

ISS - Pass Details

Date: 28 January 2023
Orbit: 412 x 423 km, 51.6° (Epoch: 06 February)

Event Time Altitude Azimuth Distance (km) Brightness Sun altitude
Rises 18:26:13 0° 283° (WNW) 2,382 1.4 -15.6°
Reaches altitude 10° 18:28:20 10° 285° (WNW) 1,516 0.1 -15.9°
Maximum altitude 18:31:45 80° 13° (NNE) 436 -3.8 -16.4°
Enters shadow 18:32:44 43° 94° (E) 606 -3.5 -16.6°
